Flag for U.S.A. Weather past 2 weeks in Montgomery, Alabama, U.S.A.

Now
89 °F

Passing clouds.


Feels Like: 93 °F
Forecast: 70 / 87 °F
Wind: 3 mph from North

Location: Maxwell Air Force Base / Montgomery

Current Time: Aug 31, 2015 at 5:34:44 PM

Latest Report: Aug 31, 2015 at 3:58 PM


Visibility: 10 mi

Pressure: 30.03 "Hg

Humidity: 51%

Dew point: 69 °F

Location of MontgomeryLocation

Historic Weather in Montgomery — Graph

°F

Montgomery temperature yesterday

Maximum temperature yesterday: 85 °F (at 2:58 PM)
Minimum temperature yesterday: 72 °F (at 2:58 AM)
Average temperature yesterday: 76 °F

Past Weeks' High & Low Weather Summary

 TemperatureHumidityPressure
High93 °F (Aug 22, 2:58 PM)100% (Aug 16, 10:01 PM)30.14 "Hg (Aug 16, 10:01 PM)
Low59 °F (Aug 26, 5:58 AM)37% (Aug 25, 1:58 PM)29.90 "Hg (Aug 18, 3:58 PM)
Average78 °F79%30.01 "Hg
* Reported Aug 16 3:58 PM — Aug 31 3:58 PM, Montgomery, Weather by CustomWeather, © 2015

Note: Actual official high and low records may vary slightly from our data, if they occured in-between our weather recording intervals... More about our weather records

Advertising

Montgomery weather history for previous 24 hours

 ConditionsComfort  
Time TempWeatherWind HumidityBarometerVisibility
3:58 PM
Mon, Aug 31
89 °FPassing clouds.3 mph51%30.03 "Hg10 mi
2:58 PM88 °FSunny.3 mph51%30.04 "Hg10 mi
1:58 PM88 °FPassing clouds.5 mph54%30.06 "Hg10 mi
12:58 PM86 °FPartly sunny.6 mph60%30.07 "Hg10 mi
11:58 AM85 °FPartly sunny.1 mph64%30.09 "Hg10 mi
10:58 AM81 °FSunny.3 mph72%30.10 "Hg10 mi
9:58 AM79 °FPassing clouds.3 mph76%30.10 "Hg10 mi
8:58 AM76 °FScattered clouds.5 mph85%30.09 "Hg10 mi
7:58 AM74 °FPartly sunny.3 mph91%30.08 "Hg10 mi
6:58 AM73 °FLow clouds.5 mph95%30.06 "Hg10 mi
5:58 AM73 °FLow clouds.5 mph94%30.04 "Hg10 mi
5:03 AM73 °FLow clouds.3 mph94%30.03 "Hg10 mi
4:58 AM73 °FLow clouds.3 mph96%30.03 "Hg10 mi
3:58 AM72 °FLow clouds.2 mph96%30.01 "Hg10 mi
2:58 AM72 °FPassing clouds.2 mph97%30.02 "Hg10 mi
1:58 AM72 °FClear.2 mph96%30.02 "Hg10 mi
12:58 AM72 °FClear.2 mph95%30.03 "Hg10 mi
11:58 PM
Sun, Aug 30
73 °FClear.3 mph93%30.04 "Hg10 mi
10:58 PM74 °FClear.3 mph91%30.04 "Hg10 mi
9:58 PM75 °FClear.3 mph89%30.04 "Hg10 mi
8:58 PM76 °FClear.No wind87%30.03 "Hg10 mi
7:58 PM76 °FSunny.5 mph87%30.01 "Hg10 mi
6:58 PM80 °FSunny.3 mph74%30.00 "Hg10 mi
5:58 PM83 °FScattered clouds.8 mph65%30.00 "Hg10 mi
Weather by CustomWeather, © 2015

See weather overviewHow to use our weather pages